CT1AKV-10 Estrada Real PT current weather conditions

sailwx.info

Wind from 324 at 4 knots gusting 9

Air temperature 35.0° C
Dewpoint -1.2° C

Last reported at 2014-Aug-27 14:45 UTC.
Time now 2014-Aug-27 15:16 UTC

Location: N 39°11' W 008°44'.
View on Google Maps.

See reports from other nearby stations

  
Tides and Currents Weather Stations Pressure Air Temp Water Temp Dewpoint Dewpoint Depression Visibility Wind Speed Wind Dir Waves Ship Positions
date/time (UTC)wind fromknots sea level pressurealtimeterstation pressurevisibilityair tempwater tempwave heightnotes
2014-Aug-27 14:45 324 4 gusting 9 35.0
2014-Aug-27 14:30 326 3 gusting 9 35.0
2014-Aug-27 14:15 340 4 gusting 11 34.4
2014-Aug-27 14:00 305 4 gusting 9 35.0
2014-Aug-27 13:45 308 4 gusting 10 34.4
2014-Aug-27 13:30 324 5 gusting 10 33.9
2014-Aug-27 13:15 298 5 gusting 9 33.9
2014-Aug-27 13:00 290 4 gusting 9 33.9
2014-Aug-27 12:45 282 3 gusting 9 34.4
2014-Aug-27 12:30 351 3 gusting 9 33.9
2014-Aug-27 12:15 317 3 gusting 8 33.9
2014-Aug-27 12:00 308 1 gusting 7 33.3
2014-Aug-27 11:45 327 3 gusting 7 33.3
2014-Aug-27 11:30 321 2 gusting 9 32.2
2014-Aug-26 20:30 304 2 gusting 7 21.7
2014-Aug-26 20:15 323 3 gusting 9 22.2
2014-Aug-26 20:00 324 2 gusting 6 22.2
2014-Aug-26 19:45 291 2 gusting 6 22.8
2014-Aug-26 19:30 312 2 gusting 6 23.3
2014-Aug-26 19:15 317 3 gusting 8 23.9
2014-Aug-26 19:00 316 3 gusting 9 25.0
2014-Aug-26 18:45 336 5 gusting 13 25.6
2014-Aug-26 18:30 334 4 gusting 9 27.2
2014-Aug-26 18:15 304 4 gusting 10 27.8
2014-Aug-26 18:00 309 3 gusting 9 28.9
2014-Aug-26 17:45 298 4 gusting 9 28.9
2014-Aug-26 17:30 318 3 gusting 8 30.0
2014-Aug-26 17:15 308 4 gusting 11 30.0
2014-Aug-26 17:00 301 3 gusting 8 30.6
2014-Aug-26 16:45 328 4 gusting 13 30.6
2014-Aug-26 16:30 300 4 gusting 10 31.1
2014-Aug-26 16:15 286 4 gusting 11 31.1
2014-Aug-26 16:00 306 3 gusting 9 31.7
2014-Aug-26 15:45 308 4 gusting 9 31.7
2014-Aug-26 15:30 319 4 gusting 9 31.1
2014-Aug-26 15:15 322 4 gusting 10 31.1
2014-Aug-26 15:00 313 6 gusting 13 30.6
2014-Aug-26 14:45 316 4 gusting 12 31.7
2014-Aug-26 14:30 320 3 gusting 14 32.2
2014-Aug-26 14:15 310 3 gusting 9 32.2
2014-Aug-25 20:15 308 2 gusting 6 20.6
2014-Aug-25 20:00 324 4 gusting 12 21.1
2014-Aug-25 19:45 295 4 gusting 9 21.1
2014-Aug-25 19:30 302 4 gusting 11 21.7
2014-Aug-25 19:15 322 5 gusting 12 22.2
2014-Aug-25 19:00 310 5 gusting 13 22.8
2014-Aug-25 18:45 303 4 gusting 13 23.9
2014-Aug-25 18:30 322 4 gusting 12 26.1
2014-Aug-25 18:15 314 4 gusting 10 26.7
2014-Aug-25 18:00 327 6 gusting 13 27.2
2014-Aug-25 17:45 317 6 gusting 14 28.3
2014-Aug-25 17:30 311 5 gusting 11 28.9
2014-Aug-25 17:15 308 6 gusting 14 29.4
2014-Aug-25 17:00 322 6 gusting 14 29.4
2014-Aug-25 16:45 296 6 gusting 13 30.6
2014-Aug-25 16:30 299 6 gusting 13 30.6
2014-Aug-25 16:15 329 6 gusting 14 31.1
2014-Aug-25 16:00 299 6 gusting 14 31.7
2014-Aug-25 15:45 323 6 gusting 13 32.2
2014-Aug-25 15:30 332 5 gusting 11 32.8
2014-Aug-25 15:15 277 5 gusting 13 32.8
2014-Aug-25 15:00 306 5 gusting 13 33.3